Skip Page Navigation
NASA JPL Caltech
NASA Logo - Jet Propulsion Laboratory + View the NASA Portal
+ Center for Near-Earth Object Studies
JPL Home Earth Solar System Stars & Galaxies Technology
JPL Solar System Dynamics
BODIES ORBITS EPHEMERIDES TOOLS PHYSICAL DATA DISCOVERY FAQ SITE MAP
JPL Small-Body Database Browser
Search: [ help ]  
215003 (2008 CQ162)
Classification: Main-belt Asteroid          SPK-ID: 2215003
Ephemeris | Orbit Diagram | Orbital Elements | Mission Design | Physical Parameters | Discovery Circumstances ]

[ show orbit diagram ]
Orbital Elements at Epoch 2459000.5 (2020-May-31.0) TDB
Reference: JPL 6 (heliocentric ecliptic J2000)
 Element Value Uncertainty (1-sigma)   Units 
e .1206016765062715 1.057e-07  
a 3.044315910248472 5.1967e-08 au
q 2.67716630765779 3.402e-07 au
i 1.06928593762354 1.1291e-05 deg
node 174.086966115649 0.00039408 deg
peri 211.0966373317117 0.00039672 deg
M 222.9956956193768 4.4607e-05 deg
tp 2459738.854139718227
(2022-Jun-08.35413972)
0.00024963 TDB
period 1940.139702181177
5.31
4.9678e-05
1.36e-07
d
yr
n .1855536483250535 4.7512e-09 deg/d
Q 3.411465512839153 5.8235e-08 au
  Orbit Determination Parameters
   # obs. used (total)      150  
   data-arc span      6311 days (17.28 yr)  
   first obs. used      2001-12-17  
   last obs. used      2019-03-29  
   planetary ephem.      DE431  
   SB-pert. ephem.      SB431-N16  
   condition code      0  
   norm. resid. RMS      .59622  
   source      ORB  
   producer      Otto Matic  
   solution date      2019-Jul-14 10:23:54  

Additional Information
 Earth MOID = 1.68112 au 
 Jupiter MOID = 2.03512 au 
 T_jup = 3.228 
[ show covariance matrix ]

Ephemeris | Orbit Diagram | Orbital Elements | Mission Design | Physical Parameters | Discovery Circumstances ]

Physical Parameter Table
Parameter Symbol Value Units Sigma Reference Notes
absolute magnitude H 16.3   n/a MPO433406  

215003 (2008 CQ162)          Discovered 2008-Feb-10 by Spacewatch at Kitt Peak
Reference: 20090509/Numbers.arcLast Updated: 2009-05-11

Alternate Designations
 2008 CQ162 = 2005 NL19 
Ephemeris | Orbit Diagram | Orbital Elements | Mission Design | Physical Parameters | Discovery Circumstances ]
ABOUT SSD CREDITS/AWARDS PRIVACY/COPYRIGHT GLOSSARY LINKS
FirstGov 2020-Jul-09 21:18 UT
(server date/time)  
NASA Home Page
Site Manager:   Ryan S. Park
Webmaster  Alan B. Chamberlin